Time,TemperatureF,DewpointF,PressureIn,WindDirection,WindDirectionDegrees,WindSpeedMPH,WindSpeedGustMPH,Humidity,HourlyPrecipIn,Conditions,Clouds,dailyrainin,SoftwareType,DateUTC
2013-01-21 00:00:00,14.0,-1.0,-100.00,WNW,291,25.0,43.0,50,-99.99,,,-99.99,,2013-01-21 07:00:00,
2013-01-21 00:43:00,14.0,-1.0,-100.00,WNW,291,25.0,43.0,50,-99.99,,,-99.99,,2013-01-21 07:43:00,
2013-01-21 00:53:00,14.0,-1.0,-100.00,WNW,291,25.0,43.0,50,-99.99,,,-99.99,,2013-01-21 07:53:00,
2013-01-21 02:00:00,14.0,0.0,-100.00,WNW,291,28.0,46.0,52,-99.99,,,-99.99,,2013-01-21 09:00:00,
2013-01-21 02:43:00,14.0,0.0,-100.00,WNW,291,28.0,46.0,52,-99.99,,,-99.99,,2013-01-21 09:43:00,
2013-01-21 02:53:00,14.0,0.0,-100.00,WNW,291,28.0,46.0,52,-99.99,,,-99.99,,2013-01-21 09:53:00,
2013-01-21 03:00:00,15.0,0.0,-100.00,WNW,285,28.0,42.0,51,-99.99,,,-99.99,,2013-01-21 10:00:00,
2013-01-21 03:43:00,15.0,0.0,-100.00,WNW,285,28.0,42.0,51,-99.99,,,-99.99,,2013-01-21 10:43:00,
2013-01-21 03:53:00,15.0,0.0,-100.00,WNW,285,28.0,42.0,51,-99.99,,,-99.99,,2013-01-21 10:53:00,
2013-01-21 05:00:00,16.0,0.0,-100.00,WNW,293,22.0,31.0,49,-99.99,,,-99.99,,2013-01-21 12:00:00,
2013-01-21 05:43:00,16.0,0.0,-100.00,WNW,293,22.0,31.0,49,-99.99,,,-99.99,,2013-01-21 12:43:00,
2013-01-21 05:53:00,16.0,0.0,-100.00,WNW,293,22.0,31.0,49,-99.99,,,-99.99,,2013-01-21 12:53:00,
2013-01-21 06:00:00,14.0,0.0,-100.00,West,278,17.0,31.0,53,-99.99,,,-99.99,,2013-01-21 13:00:00,
2013-01-21 06:43:00,14.0,0.0,-100.00,West,278,17.0,31.0,53,-99.99,,,-99.99,,2013-01-21 13:43:00,
2013-01-21 06:54:00,14.0,0.0,-100.00,West,278,17.0,31.0,53,-99.99,,,-99.99,,2013-01-21 13:54:00,
2013-01-21 07:00:00,13.0,0.0,-100.00,West,277,15.0,32.0,55,-99.99,,,-99.99,,2013-01-21 14:00:00,
2013-01-21 07:43:00,13.0,0.0,-100.00,West,277,15.0,32.0,55,-99.99,,,-99.99,,2013-01-21 14:43:00,
2013-01-21 07:53:00,13.0,0.0,-100.00,West,277,15.0,32.0,55,-99.99,,,-99.99,,2013-01-21 14:53:00,
2013-01-21 08:00:00,15.0,3.0,-100.00,WNW,295,23.0,42.0,58,-99.99,,,-99.99,,2013-01-21 15:00:00,
2013-01-21 08:43:00,15.0,3.0,-100.00,WNW,295,23.0,42.0,58,-99.99,,,-99.99,,2013-01-21 15:43:00,
2013-01-21 08:53:00,15.0,3.0,-100.00,WNW,295,23.0,42.0,58,-99.99,,,-99.99,,2013-01-21 15:53:00,
2013-01-21 09:00:00,15.0,4.0,-100.00,WNW,288,24.0,49.0,59,-99.99,,,-99.99,,2013-01-21 16:00:00,
2013-01-21 09:44:00,15.0,4.0,-100.00,WNW,288,24.0,49.0,59,-99.99,,,-99.99,,2013-01-21 16:44:00,
2013-01-21 09:53:00,15.0,4.0,-100.00,WNW,288,24.0,49.0,59,-99.99,,,-99.99,,2013-01-21 16:53:00,
2013-01-21 19:00:00,18.0,-9.0,-100.00,WNW,301,20.0,43.0,29,-99.99,,,-99.99,,2013-01-22 02:00:00,
2013-01-21 19:43:00,18.0,-9.0,-100.00,WNW,301,20.0,43.0,29,-99.99,,,-99.99,,2013-01-22 02:43:00,
2013-01-21 19:53:00,18.0,-9.0,-100.00,WNW,301,20.0,43.0,29,-99.99,,,-99.99,,2013-01-22 02:53:00,
2013-01-21 21:00:00,17.0,-12.0,-100.00,NW,307,18.0,38.0,26,-99.99,,,-99.99,,2013-01-22 04:00:00,
2013-01-21 21:42:00,17.0,-12.0,-100.00,NW,307,18.0,38.0,26,-99.99,,,-99.99,,2013-01-22 04:42:00,
2013-01-21 21:52:00,17.0,-12.0,-100.00,NW,307,18.0,38.0,26,-99.99,,,-99.99,,2013-01-22 04:52:00,
2013-01-21 22:00:00,18.0,-13.0,-100.00,WNW,298,21.0,48.0,23,-99.99,,,-99.99,,2013-01-22 05:00:00,
2013-01-21 22:43:00,18.0,-13.0,-100.00,WNW,298,21.0,48.0,23,-99.99,,,-99.99,,2013-01-22 05:43:00,
2013-01-21 22:53:00,18.0,-13.0,-100.00,WNW,298,21.0,48.0,23,-99.99,,,-99.99,,2013-01-22 05:53:00,
2013-01-21 23:00:00,19.0,-15.0,-100.00,WNW,293,24.0,50.0,20,-99.99,,,-99.99,,2013-01-22 06:00:00,
2013-01-21 23:43:00,19.0,-15.0,-100.00,WNW,293,24.0,50.0,20,-99.99,,,-99.99,,2013-01-22 06:43:00,
2013-01-21 23:53:00,19.0,-15.0,-100.00,WNW,293,24.0,50.0,20,-99.99,,,-99.99,,2013-01-22 06:53:00,